Year,Month,Day,Hour,Minute,Value (Times are PST for temperature in C)
2011,07,17,00,00,14.80
2011,07,17,00,01,14.80
2011,07,17,00,02,14.80
2011,07,17,00,03,14.80
2011,07,17,00,04,14.80
2011,07,17,00,05,14.80
2011,07,17,00,06,14.80
2011,07,17,00,07,14.80
2011,07,17,00,08,14.80
2011,07,17,00,09,14.80
2011,07,17,00,10,14.80
2011,07,17,00,11,14.80
2011,07,17,00,12,14.80
2011,07,17,00,13,14.80
2011,07,17,00,14,14.80
2011,07,17,00,15,14.80
2011,07,17,00,16,14.80
2011,07,17,00,17,14.80
2011,07,17,00,18,14.80
2011,07,17,00,19,14.80
2011,07,17,00,20,14.80
2011,07,17,00,21,14.80
2011,07,17,00,22,14.90
2011,07,17,00,23,14.90
2011,07,17,00,24,14.90
2011,07,17,00,25,14.90
2011,07,17,00,26,15.00
2011,07,17,00,27,15.00
2011,07,17,00,28,15.00
2011,07,17,00,29,15.00
2011,07,17,00,30,15.00
2011,07,17,00,31,15.00
2011,07,17,00,32,15.00
2011,07,17,00,33,15.00
2011,07,17,00,34,15.00
2011,07,17,00,35,15.00
2011,07,17,00,36,15.00
2011,07,17,00,37,15.00
2011,07,17,00,38,15.00
2011,07,17,00,39,15.00
2011,07,17,00,40,15.00
2011,07,17,00,41,15.00
2011,07,17,00,42,15.00
2011,07,17,00,43,15.00
2011,07,17,00,44,15.00
2011,07,17,00,45,15.00
2011,07,17,00,46,15.00
2011,07,17,00,47,15.00
2011,07,17,00,48,15.00
2011,07,17,00,49,15.00
2011,07,17,00,50,15.00
2011,07,17,00,51,15.00
2011,07,17,00,52,15.00
2011,07,17,00,53,15.00
2011,07,17,00,54,15.00
2011,07,17,00,55,15.00
2011,07,17,00,56,15.00
2011,07,17,00,57,15.00
2011,07,17,00,58,15.00
2011,07,17,00,59,15.00
2011,07,17,01,00,15.00
2011,07,17,01,01,15.00
2011,07,17,01,02,15.00
2011,07,17,01,03,15.00
2011,07,17,01,04,15.00
2011,07,17,01,05,15.00
2011,07,17,01,06,15.00
2011,07,17,01,07,15.00
2011,07,17,01,08,15.00
2011,07,17,01,09,15.00
2011,07,17,01,10,15.00
2011,07,17,01,11,15.00
2011,07,17,01,12,15.00
2011,07,17,01,13,15.00
2011,07,17,01,14,14.90
2011,07,17,01,15,14.90
2011,07,17,01,16,14.80
2011,07,17,01,17,14.80
2011,07,17,01,18,14.80
2011,07,17,01,19,14.70
2011,07,17,01,20,14.70
2011,07,17,01,21,14.70
2011,07,17,01,22,14.70
2011,07,17,01,23,14.70
2011,07,17,01,24,14.80
2011,07,17,01,25,14.80
2011,07,17,01,26,14.80
2011,07,17,01,27,14.80
2011,07,17,01,28,14.80
2011,07,17,01,29,14.80
2011,07,17,01,30,14.80
2011,07,17,01,31,14.80
2011,07,17,01,32,14.80
2011,07,17,01,33,14.70
2011,07,17,01,34,14.70
2011,07,17,01,35,14.70
2011,07,17,01,36,14.70
2011,07,17,01,37,14.70
2011,07,17,01,38,14.60
2011,07,17,01,39,14.60
2011,07,17,01,40,14.60
2011,07,17,01,41,14.50
2011,07,17,01,42,14.50
2011,07,17,01,43,14.50
2011,07,17,01,44,14.40
2011,07,17,01,45,14.40
2011,07,17,01,46,14.40
2011,07,17,01,47,14.30
2011,07,17,01,48,14.30
2011,07,17,01,49,14.30
2011,07,17,01,50,14.30
2011,07,17,01,51,14.30
2011,07,17,01,52,14.30
2011,07,17,01,53,14.20
2011,07,17,01,54,14.20
2011,07,17,01,55,14.20
2011,07,17,01,56,14.10
2011,07,17,01,57,14.10
2011,07,17,01,58,14.10
2011,07,17,01,59,14.10
2011,07,17,02,00,14.10
2011,07,17,02,01,14.10
2011,07,17,02,02,14.00
2011,07,17,02,03,14.00
2011,07,17,02,04,14.00
2011,07,17,02,05,14.00
2011,07,17,02,06,14.00
2011,07,17,02,07,14.00
2011,07,17,02,08,14.00
2011,07,17,02,09,14.00
2011,07,17,02,10,14.10
2011,07,17,02,11,14.00
2011,07,17,02,12,14.00
2011,07,17,02,13,14.00
2011,07,17,02,14,14.00
2011,07,17,02,15,14.00
2011,07,17,02,16,14.00
2011,07,17,02,17,14.00
2011,07,17,02,18,14.00
2011,07,17,02,19,14.00
2011,07,17,02,20,13.90
2011,07,17,02,21,13.90
2011,07,17,02,22,13.90
2011,07,17,02,23,13.90
2011,07,17,02,24,13.80
2011,07,17,02,25,13.80
2011,07,17,02,26,13.80
2011,07,17,02,27,13.80
2011,07,17,02,28,13.80
2011,07,17,02,29,13.80
2011,07,17,02,30,13.80
2011,07,17,02,31,13.80
2011,07,17,02,32,13.80
2011,07,17,02,33,13.80
2011,07,17,02,34,13.80
2011,07,17,02,35,13.80
2011,07,17,02,36,13.70
2011,07,17,02,37,13.70
2011,07,17,02,38,13.70
2011,07,17,02,39,13.70
2011,07,17,02,40,13.70
2011,07,17,02,41,13.70
2011,07,17,02,42,13.70
2011,07,17,02,43,13.70
2011,07,17,02,44,13.70
2011,07,17,02,45,13.70
2011,07,17,02,46,13.70
2011,07,17,02,47,13.70
2011,07,17,02,48,13.70
2011,07,17,02,49,13.60
2011,07,17,02,50,13.60
2011,07,17,02,51,13.60
2011,07,17,02,52,13.60
2011,07,17,02,53,13.60
2011,07,17,02,54,13.60
2011,07,17,02,55,13.50
2011,07,17,02,56,13.50
2011,07,17,02,57,13.50
2011,07,17,02,58,13.50
2011,07,17,02,59,13.50
2011,07,17,03,00,13.50
2011,07,17,03,01,13.50
2011,07,17,03,02,13.40
2011,07,17,03,03,13.40
2011,07,17,03,04,13.40
2011,07,17,03,05,13.40
2011,07,17,03,06,13.40
2011,07,17,03,07,13.40
2011,07,17,03,08,13.40
2011,07,17,03,09,13.40
2011,07,17,03,10,13.40
2011,07,17,03,11,13.40
2011,07,17,03,12,13.40
2011,07,17,03,13,13.40
2011,07,17,03,14,13.40
2011,07,17,03,15,13.40
2011,07,17,03,16,13.40
2011,07,17,03,17,13.40
2011,07,17,03,18,13.30
2011,07,17,03,19,13.40
2011,07,17,03,20,13.40
2011,07,17,03,21,13.40
2011,07,17,03,22,13.40
2011,07,17,03,23,13.40
2011,07,17,03,24,13.40
2011,07,17,03,25,13.40
2011,07,17,03,26,13.40
2011,07,17,03,27,13.40
2011,07,17,03,28,13.40
2011,07,17,03,29,13.40
2011,07,17,03,30,13.40
2011,07,17,03,31,13.40
2011,07,17,03,32,13.40
2011,07,17,03,33,13.40
2011,07,17,03,34,13.40
2011,07,17,03,35,13.40
2011,07,17,03,36,13.40
2011,07,17,03,37,13.40
2011,07,17,03,38,13.30
2011,07,17,03,39,13.30
2011,07,17,03,40,13.30
2011,07,17,03,41,13.30
2011,07,17,03,42,13.30
2011,07,17,03,43,13.30
2011,07,17,03,44,13.30
2011,07,17,03,45,13.30
2011,07,17,03,49,13.30
2011,07,17,03,50,13.30
2011,07,17,03,51,13.30
2011,07,17,03,52,13.20
2011,07,17,03,53,13.20
2011,07,17,03,54,13.20
2011,07,17,03,55,13.20
2011,07,17,03,56,13.20
2011,07,17,03,57,13.20
2011,07,17,03,58,13.20
2011,07,17,03,59,13.10
2011,07,17,04,00,13.10
2011,07,17,04,01,13.10
2011,07,17,04,02,13.10
2011,07,17,04,03,13.10
2011,07,17,04,04,13.10
2011,07,17,04,05,13.10
2011,07,17,04,06,13.10
2011,07,17,04,07,13.10
2011,07,17,04,08,13.10
2011,07,17,04,09,13.00
2011,07,17,04,10,13.00
2011,07,17,04,11,13.00
2011,07,17,04,12,13.00
2011,07,17,04,13,13.00
2011,07,17,04,14,12.90
2011,07,17,04,15,12.90
2011,07,17,04,16,12.90
2011,07,17,04,17,12.90
2011,07,17,04,18,12.90
2011,07,17,04,19,12.90
2011,07,17,04,20,12.90
2011,07,17,04,21,12.90
2011,07,17,04,22,12.90
2011,07,17,04,23,12.90
2011,07,17,04,24,12.90
2011,07,17,04,25,12.90
2011,07,17,04,26,12.90
2011,07,17,04,27,12.90
2011,07,17,04,28,12.90
2011,07,17,04,29,12.90
2011,07,17,04,30,12.90
2011,07,17,04,31,12.80
2011,07,17,04,32,12.80
2011,07,17,04,33,12.80
2011,07,17,04,34,12.80
2011,07,17,04,35,12.80
2011,07,17,04,36,12.80
2011,07,17,04,37,12.80
2011,07,17,04,38,12.80
2011,07,17,04,39,12.80
2011,07,17,04,40,12.80
2011,07,17,04,41,12.80
2011,07,17,04,42,12.80
2011,07,17,04,43,12.80
2011,07,17,04,44,12.80
2011,07,17,04,45,12.80
2011,07,17,04,46,12.80
2011,07,17,04,47,12.80
2011,07,17,04,48,12.80
2011,07,17,04,49,12.80
2011,07,17,04,50,12.80
2011,07,17,04,51,12.80
2011,07,17,04,52,12.80
2011,07,17,04,53,12.80
2011,07,17,04,54,12.80
2011,07,17,04,55,12.70
2011,07,17,04,56,12.70
2011,07,17,04,57,12.70
2011,07,17,04,58,12.70
2011,07,17,04,59,12.70
2011,07,17,05,00,12.70
2011,07,17,05,01,12.70
2011,07,17,05,02,12.70
2011,07,17,05,03,12.70
2011,07,17,05,04,12.60
2011,07,17,05,05,12.60
2011,07,17,05,06,12.60
2011,07,17,05,07,12.60
2011,07,17,05,08,12.60
2011,07,17,05,09,12.60
2011,07,17,05,10,12.60
2011,07,17,05,11,12.60
2011,07,17,05,12,12.60
2011,07,17,05,13,12.60
2011,07,17,05,14,12.60
2011,07,17,05,15,12.60
2011,07,17,05,16,12.60
2011,07,17,05,17,12.60
2011,07,17,05,18,12.70
2011,07,17,05,19,12.70
2011,07,17,05,20,12.70
2011,07,17,05,21,12.60
2011,07,17,05,22,12.60
2011,07,17,05,23,12.60
2011,07,17,05,24,12.70
2011,07,17,05,25,12.70
2011,07,17,05,26,12.70
2011,07,17,05,27,12.70
2011,07,17,05,28,12.70
2011,07,17,05,29,12.70
2011,07,17,05,30,12.70
2011,07,17,05,31,12.70
2011,07,17,05,32,12.70
2011,07,17,05,33,12.70
2011,07,17,05,34,12.70
2011,07,17,05,35,12.70
2011,07,17,05,36,12.70
2011,07,17,05,37,12.60
2011,07,17,05,38,12.60
2011,07,17,05,39,12.60
2011,07,17,05,40,12.60
2011,07,17,05,41,12.60
2011,07,17,05,42,12.60
2011,07,17,05,43,12.60
2011,07,17,05,44,12.60
2011,07,17,05,45,12.60
2011,07,17,05,46,12.60
2011,07,17,05,47,12.60
2011,07,17,05,48,12.60
2011,07,17,05,49,12.60
2011,07,17,05,50,12.60
2011,07,17,05,51,12.60
2011,07,17,05,52,12.60
2011,07,17,05,53,12.60
2011,07,17,05,54,12.50
2011,07,17,05,55,12.50
2011,07,17,05,56,12.50
2011,07,17,05,57,12.50
2011,07,17,05,58,12.50
2011,07,17,05,59,12.50
2011,07,17,06,00,12.50
2011,07,17,06,01,12.50
2011,07,17,06,02,12.50
2011,07,17,06,03,12.50
2011,07,17,06,04,12.50
2011,07,17,06,05,12.50
2011,07,17,06,06,12.50
2011,07,17,06,07,12.40
2011,07,17,06,08,12.40
2011,07,17,06,09,12.40
2011,07,17,06,10,12.40
2011,07,17,06,11,12.40
2011,07,17,06,12,12.40
2011,07,17,06,13,12.40
2011,07,17,06,14,12.40
2011,07,17,06,15,12.40
2011,07,17,06,16,12.40
2011,07,17,06,17,12.40
2011,07,17,06,18,12.40
2011,07,17,06,19,12.40
2011,07,17,06,20,12.50
2011,07,17,06,21,12.50
2011,07,17,06,22,12.60
2011,07,17,06,23,12.60
2011,07,17,06,24,12.60
2011,07,17,06,25,12.70
2011,07,17,06,26,12.70
2011,07,17,06,27,12.70
2011,07,17,06,28,12.70
2011,07,17,06,29,12.80
2011,07,17,06,30,12.80
2011,07,17,06,31,12.80
2011,07,17,06,32,12.80
2011,07,17,06,33,12.90
2011,07,17,06,34,12.90
2011,07,17,06,35,12.90
2011,07,17,06,36,12.90
2011,07,17,06,37,12.90
2011,07,17,06,38,12.90
2011,07,17,06,39,13.00
2011,07,17,06,40,13.00
2011,07,17,06,41,13.00
2011,07,17,06,42,13.00
2011,07,17,06,43,13.10
2011,07,17,06,44,13.10
2011,07,17,06,45,13.10
2011,07,17,06,46,13.20
2011,07,17,06,47,13.20
2011,07,17,06,48,13.20
2011,07,17,06,49,13.20
2011,07,17,06,50,13.20
2011,07,17,06,51,13.30
2011,07,17,06,52,13.30
2011,07,17,06,53,13.30
2011,07,17,06,54,13.30
2011,07,17,06,55,13.30
2011,07,17,06,56,13.30
2011,07,17,06,57,13.30
2011,07,17,06,58,13.40
2011,07,17,06,59,13.40
2011,07,17,07,00,13.40
2011,07,17,07,01,13.50
2011,07,17,07,02,13.50
2011,07,17,07,03,13.50
2011,07,17,07,04,13.60
2011,07,17,07,05,13.50
2011,07,17,07,06,13.50
2011,07,17,07,07,13.50
2011,07,17,07,08,13.50
2011,07,17,07,09,13.50
2011,07,17,07,10,13.50
2011,07,17,07,11,13.50
2011,07,17,07,12,13.50
2011,07,17,07,13,13.50
2011,07,17,07,14,13.50
2011,07,17,07,15,13.50
2011,07,17,07,16,13.50
2011,07,17,07,17,13.60
2011,07,17,07,18,13.60
2011,07,17,07,19,13.60
2011,07,17,07,20,13.70
2011,07,17,07,21,13.70
2011,07,17,07,22,13.70
2011,07,17,07,23,13.70
2011,07,17,07,24,13.70
2011,07,17,07,25,13.80
2011,07,17,07,26,13.80
2011,07,17,07,27,13.80
2011,07,17,07,28,13.80
2011,07,17,07,29,13.80
2011,07,17,07,30,13.80
2011,07,17,07,31,13.80
2011,07,17,07,32,13.80
2011,07,17,07,33,13.80
2011,07,17,07,34,13.80
2011,07,17,07,35,13.80
2011,07,17,07,36,13.80
2011,07,17,07,37,13.80
2011,07,17,07,38,13.80
2011,07,17,07,39,13.90
2011,07,17,07,40,13.90
2011,07,17,07,41,13.90
2011,07,17,07,42,14.00
2011,07,17,07,43,14.00
2011,07,17,07,44,14.10
2011,07,17,07,45,14.10
2011,07,17,07,46,14.20
2011,07,17,07,47,14.20
2011,07,17,07,48,14.30
2011,07,17,07,49,14.30
2011,07,17,07,50,14.30
2011,07,17,07,51,14.30
2011,07,17,07,52,14.30
2011,07,17,07,53,14.40
2011,07,17,07,54,14.40
2011,07,17,07,55,14.40
2011,07,17,07,56,14.40
2011,07,17,07,57,14.40
2011,07,17,07,58,14.40
2011,07,17,07,59,14.50
2011,07,17,08,00,14.50
2011,07,17,08,01,14.60
2011,07,17,08,02,14.60
2011,07,17,08,03,14.60
2011,07,17,08,04,14.70
2011,07,17,08,05,14.70
2011,07,17,08,06,14.70
2011,07,17,08,07,14.70
2011,07,17,08,08,14.70
2011,07,17,08,09,14.70
2011,07,17,08,10,14.70
2011,07,17,08,11,14.70
2011,07,17,08,12,14.70
2011,07,17,08,13,14.70
2011,07,17,08,14,14.70
2011,07,17,08,15,14.70
2011,07,17,08,16,14.80
2011,07,17,08,17,14.80
2011,07,17,08,18,14.80
2011,07,17,08,19,14.80
2011,07,17,08,20,14.80
2011,07,17,08,21,14.80
2011,07,17,08,22,14.80
2011,07,17,08,23,14.80
2011,07,17,08,24,14.80
2011,07,17,08,25,14.90
2011,07,17,08,26,14.90
2011,07,17,08,27,15.00
2011,07,17,08,28,15.00
2011,07,17,08,29,15.00
2011,07,17,08,30,15.00
2011,07,17,08,31,15.00
2011,07,17,08,32,15.00
2011,07,17,08,33,15.00
2011,07,17,08,34,15.10
2011,07,17,08,35,15.10
2011,07,17,08,36,15.10
2011,07,17,08,37,15.20
2011,07,17,08,38,15.30
2011,07,17,08,39,15.30
2011,07,17,08,40,15.30
2011,07,17,08,41,15.40
2011,07,17,08,42,15.40
2011,07,17,08,43,15.40
2011,07,17,08,44,15.40
2011,07,17,08,45,15.40
2011,07,17,08,46,15.50
2011,07,17,08,47,15.50
2011,07,17,08,48,15.50
2011,07,17,08,49,15.50
2011,07,17,08,50,15.50
2011,07,17,08,51,15.50
2011,07,17,08,52,15.60
2011,07,17,08,53,15.60
2011,07,17,08,54,15.60
2011,07,17,08,55,15.70
2011,07,17,08,56,15.80
2011,07,17,08,57,15.80
2011,07,17,08,58,15.80
2011,07,17,08,59,15.90
2011,07,17,09,00,15.90
2011,07,17,09,01,16.00
2011,07,17,09,02,16.00
2011,07,17,09,03,16.10
2011,07,17,09,04,16.10
2011,07,17,09,05,16.10
2011,07,17,09,06,16.20
2011,07,17,09,07,16.20
2011,07,17,09,08,16.30
2011,07,17,09,09,16.30
2011,07,17,09,10,16.30
2011,07,17,09,11,16.40
2011,07,17,09,12,16.40
2011,07,17,09,13,16.50
2011,07,17,09,14,16.60
2011,07,17,09,15,16.60
2011,07,17,09,16,16.70
2011,07,17,09,17,16.70
2011,07,17,09,18,16.70
2011,07,17,09,19,16.80
2011,07,17,09,20,16.80
2011,07,17,09,21,16.80
2011,07,17,09,22,16.90
2011,07,17,09,23,16.90
2011,07,17,09,24,17.00
2011,07,17,09,25,17.10
2011,07,17,09,26,17.20
2011,07,17,09,27,17.30
2011,07,17,09,28,17.40
2011,07,17,09,29,17.50
2011,07,17,09,30,17.60
2011,07,17,09,31,17.70
2011,07,17,09,32,17.80
2011,07,17,09,33,17.80
2011,07,17,09,34,17.90
2011,07,17,09,35,17.90
2011,07,17,09,36,17.90
2011,07,17,09,37,17.80
2011,07,17,09,38,17.70
2011,07,17,09,39,17.60
2011,07,17,09,40,17.50
2011,07,17,09,41,17.40
2011,07,17,09,42,17.30
2011,07,17,09,43,17.30
2011,07,17,09,44,17.30
2011,07,17,09,45,17.40
2011,07,17,09,46,17.30
2011,07,17,09,47,17.30
2011,07,17,09,48,17.20
2011,07,17,09,49,17.20
2011,07,17,09,50,17.10
2011,07,17,09,51,17.10
2011,07,17,09,52,17.10
2011,07,17,09,53,17.10
2011,07,17,09,54,17.10
2011,07,17,09,55,17.10
2011,07,17,09,56,17.10
2011,07,17,09,57,17.10
2011,07,17,09,58,17.10
2011,07,17,09,59,17.00
2011,07,17,10,00,17.00
2011,07,17,10,01,16.90
2011,07,17,10,02,16.90
2011,07,17,10,03,16.90
2011,07,17,10,04,16.90
2011,07,17,10,05,16.80
2011,07,17,10,06,16.80
2011,07,17,10,07,16.80
2011,07,17,10,08,16.80
2011,07,17,10,09,16.90
2011,07,17,10,10,16.90
2011,07,17,10,11,17.00
2011,07,17,10,12,17.00
2011,07,17,10,13,17.10
2011,07,17,10,14,17.20
2011,07,17,10,15,17.20
2011,07,17,10,16,17.30
2011,07,17,10,17,17.40
2011,07,17,10,18,17.40
2011,07,17,10,19,17.50
2011,07,17,10,20,17.60
2011,07,17,10,21,17.60
2011,07,17,10,22,17.70
2011,07,17,10,23,17.70
2011,07,17,10,24,17.80
2011,07,17,10,25,17.90
2011,07,17,10,26,18.00
2011,07,17,10,27,18.00
2011,07,17,10,28,18.10
2011,07,17,10,29,18.10
2011,07,17,10,30,18.10
2011,07,17,10,31,18.10
2011,07,17,10,32,18.10
2011,07,17,10,33,18.10
2011,07,17,10,34,18.20
2011,07,17,10,35,18.20
2011,07,17,10,36,18.20
2011,07,17,10,37,18.20
2011,07,17,10,38,18.20
2011,07,17,10,39,18.10
2011,07,17,10,40,18.10
2011,07,17,10,41,18.10
2011,07,17,10,42,18.10
2011,07,17,10,43,18.10
2011,07,17,10,44,18.10
2011,07,17,10,45,18.20
2011,07,17,10,46,18.20
2011,07,17,10,47,18.20
2011,07,17,10,48,18.20
2011,07,17,10,49,18.20
2011,07,17,10,50,18.10
2011,07,17,10,51,18.00
2011,07,17,10,52,18.00
2011,07,17,10,53,17.90
2011,07,17,10,54,17.90
2011,07,17,10,55,17.90
2011,07,17,10,56,17.80
2011,07,17,10,57,17.80
2011,07,17,10,58,17.80
2011,07,17,10,59,17.80
2011,07,17,11,00,17.80
2011,07,17,11,01,17.80
2011,07,17,11,02,17.80
2011,07,17,11,03,17.80
2011,07,17,11,04,17.80
2011,07,17,11,05,17.80
2011,07,17,11,06,17.80
2011,07,17,11,07,17.80
2011,07,17,11,08,17.80
2011,07,17,11,09,17.80
2011,07,17,11,10,17.80
2011,07,17,11,11,17.80
2011,07,17,11,12,17.80
2011,07,17,11,13,17.80
2011,07,17,11,14,17.80
2011,07,17,11,15,17.80
2011,07,17,11,16,17.80
2011,07,17,11,17,17.90
2011,07,17,11,18,17.90
2011,07,17,11,19,17.90
2011,07,17,11,20,17.90
2011,07,17,11,21,17.90
2011,07,17,11,22,17.90
2011,07,17,11,23,17.90
2011,07,17,11,24,17.80
2011,07,17,11,25,17.80
2011,07,17,11,26,17.80
2011,07,17,11,27,17.80
2011,07,17,11,28,17.90
2011,07,17,11,29,18.00
2011,07,17,11,30,18.00
2011,07,17,11,31,18.10
2011,07,17,11,32,18.20
2011,07,17,11,33,18.20
2011,07,17,11,34,18.20
2011,07,17,11,35,18.20
2011,07,17,11,36,18.20
2011,07,17,11,37,18.20
2011,07,17,11,38,18.20
2011,07,17,11,39,18.20
2011,07,17,11,40,18.30
2011,07,17,11,41,18.30
2011,07,17,11,42,18.40
2011,07,17,11,43,18.50
2011,07,17,11,44,18.60
2011,07,17,11,45,18.60
2011,07,17,11,46,18.70
2011,07,17,11,47,18.70
2011,07,17,11,48,18.80
2011,07,17,11,49,18.80
2011,07,17,11,50,18.90
2011,07,17,11,51,18.90
2011,07,17,11,52,19.00
2011,07,17,11,53,19.10
2011,07,17,11,54,19.10
2011,07,17,11,55,19.20
2011,07,17,11,56,19.30
2011,07,17,11,57,19.40
2011,07,17,11,58,19.50
2011,07,17,11,59,19.50
2011,07,17,12,00,19.50
2011,07,17,12,01,19.60
2011,07,17,12,02,19.60
2011,07,17,12,03,19.60
2011,07,17,12,04,19.60
2011,07,17,12,05,19.50
2011,07,17,12,06,19.50
2011,07,17,12,07,19.40
2011,07,17,12,08,19.40
2011,07,17,12,09,19.30
2011,07,17,12,10,19.20
2011,07,17,12,11,19.20
2011,07,17,12,12,19.10
2011,07,17,12,13,19.10
2011,07,17,12,14,19.00
2011,07,17,12,15,18.90
2011,07,17,12,16,18.80
2011,07,17,12,17,18.80
2011,07,17,12,18,18.70
2011,07,17,12,19,18.60
2011,07,17,12,20,18.60
2011,07,17,12,21,18.60
2011,07,17,12,22,18.60
2011,07,17,12,23,18.50
2011,07,17,12,24,18.50
2011,07,17,12,25,18.50
2011,07,17,12,26,18.50
2011,07,17,12,27,18.60
2011,07,17,12,28,18.60
2011,07,17,12,29,18.70
2011,07,17,12,30,18.70
2011,07,17,12,31,18.70
2011,07,17,12,32,18.60
2011,07,17,12,33,18.60
2011,07,17,12,34,18.60
2011,07,17,12,35,18.60
2011,07,17,12,36,18.60
2011,07,17,12,37,18.60
2011,07,17,12,38,18.60
2011,07,17,12,39,18.70
2011,07,17,12,40,18.70
2011,07,17,12,41,18.80
2011,07,17,12,42,18.80
2011,07,17,12,43,18.90
2011,07,17,12,44,19.00
2011,07,17,12,45,19.00
2011,07,17,12,46,19.10
2011,07,17,12,47,19.20
2011,07,17,12,48,19.30
2011,07,17,12,49,19.30
2011,07,17,12,50,19.30
2011,07,17,12,51,19.30
2011,07,17,12,52,19.30
2011,07,17,12,53,19.30
2011,07,17,12,54,19.30
2011,07,17,12,55,19.30
2011,07,17,12,56,19.20
2011,07,17,12,57,19.20
2011,07,17,12,58,19.20
2011,07,17,12,59,19.10
2011,07,17,13,00,19.10
2011,07,17,13,01,19.00
2011,07,17,13,02,19.00
2011,07,17,13,03,19.00
2011,07,17,13,04,19.00
2011,07,17,13,05,19.00
2011,07,17,13,06,19.10
2011,07,17,13,07,19.10
2011,07,17,13,08,19.10
2011,07,17,13,09,19.10
2011,07,17,13,10,19.10
2011,07,17,13,11,19.10
2011,07,17,13,12,19.10
2011,07,17,13,13,19.00
2011,07,17,13,14,18.80
2011,07,17,13,15,18.80
2011,07,17,13,16,18.60
2011,07,17,13,17,18.60
2011,07,17,13,18,18.50
2011,07,17,13,19,18.40
2011,07,17,13,20,18.40
2011,07,17,13,21,18.30
2011,07,17,13,22,18.20
2011,07,17,13,23,18.20
2011,07,17,13,24,18.20
2011,07,17,13,25,18.20
2011,07,17,13,26,18.20
2011,07,17,13,27,18.20
2011,07,17,13,28,18.20
2011,07,17,13,29,18.20
2011,07,17,13,30,18.20
2011,07,17,13,31,18.20
2011,07,17,13,32,18.20
2011,07,17,13,33,18.20
2011,07,17,13,34,18.20
2011,07,17,13,35,18.30
2011,07,17,13,36,18.30
2011,07,17,13,37,18.50
2011,07,17,13,38,18.50
2011,07,17,13,39,18.60
2011,07,17,13,40,18.70
2011,07,17,13,41,18.70
2011,07,17,13,42,18.80
2011,07,17,13,43,18.80
2011,07,17,13,44,18.80
2011,07,17,13,45,18.80
2011,07,17,13,46,18.80
2011,07,17,13,47,18.90
2011,07,17,13,48,18.90
2011,07,17,13,49,19.00
2011,07,17,13,50,19.00
2011,07,17,13,51,19.00
2011,07,17,13,52,18.90
2011,07,17,13,53,18.80
2011,07,17,13,54,18.70
2011,07,17,13,55,18.70
2011,07,17,13,56,18.70
2011,07,17,13,57,18.60
2011,07,17,13,58,18.60
2011,07,17,13,59,18.60
2011,07,17,14,00,18.60
2011,07,17,14,01,18.60
2011,07,17,14,02,18.60
2011,07,17,14,03,18.60
2011,07,17,14,04,18.60
2011,07,17,14,05,18.60
2011,07,17,14,06,18.60
2011,07,17,14,07,18.60
2011,07,17,14,08,18.60
2011,07,17,14,09,18.60
2011,07,17,14,10,18.70
2011,07,17,14,11,18.70
2011,07,17,14,12,18.70
2011,07,17,14,13,18.70
2011,07,17,14,14,18.70
2011,07,17,14,15,18.70
2011,07,17,14,16,18.70
2011,07,17,14,17,18.80
2011,07,17,14,18,18.80
2011,07,17,14,19,18.90
2011,07,17,14,20,18.90
2011,07,17,14,21,19.00
2011,07,17,14,22,19.10
2011,07,17,14,23,19.20
2011,07,17,14,24,19.20
2011,07,17,14,25,19.30
2011,07,17,14,26,19.30
2011,07,17,14,27,19.40
2011,07,17,14,28,19.40
2011,07,17,14,29,19.40
2011,07,17,14,30,19.40
2011,07,17,14,31,19.40
2011,07,17,14,32,19.40
2011,07,17,14,33,19.40
2011,07,17,14,34,19.40
2011,07,17,14,35,19.50
2011,07,17,14,36,19.50
2011,07,17,14,37,19.50
2011,07,17,14,38,19.40
2011,07,17,14,39,19.40
2011,07,17,14,40,19.40
2011,07,17,14,41,19.40
2011,07,17,14,42,19.40
2011,07,17,14,43,19.40
2011,07,17,14,44,19.40
2011,07,17,14,45,19.30
2011,07,17,14,46,19.30
2011,07,17,14,47,19.30
2011,07,17,14,48,19.30
2011,07,17,14,49,19.40
2011,07,17,14,50,19.40
2011,07,17,14,51,19.40
2011,07,17,14,52,19.30
2011,07,17,14,53,19.40
2011,07,17,14,54,19.40
2011,07,17,14,55,19.40
2011,07,17,14,56,19.50
2011,07,17,14,57,19.50
2011,07,17,14,58,19.60
2011,07,17,14,59,19.60
2011,07,17,15,00,19.70
2011,07,17,15,01,19.70
2011,07,17,15,02,19.90
2011,07,17,15,03,20.00
2011,07,17,15,04,20.10
2011,07,17,15,05,20.10
2011,07,17,15,06,20.20
2011,07,17,15,07,20.20
2011,07,17,15,08,20.20
2011,07,17,15,09,20.20
2011,07,17,15,10,20.20
2011,07,17,15,11,20.10
2011,07,17,15,12,20.00
2011,07,17,15,13,20.00
2011,07,17,15,14,19.80
2011,07,17,15,15,19.70
2011,07,17,15,16,19.60
2011,07,17,15,17,19.50
2011,07,17,15,18,19.50
2011,07,17,15,19,19.50
2011,07,17,15,20,19.50
2011,07,17,15,21,19.40
2011,07,17,15,22,19.30
2011,07,17,15,23,19.20
2011,07,17,15,24,19.20
2011,07,17,15,25,19.20
2011,07,17,15,26,19.20
2011,07,17,15,27,19.20
2011,07,17,15,28,19.20
2011,07,17,15,29,19.20
2011,07,17,15,30,19.30
2011,07,17,15,31,19.30
2011,07,17,15,32,19.20
2011,07,17,15,33,19.20
2011,07,17,15,34,19.20
2011,07,17,15,35,19.20
2011,07,17,15,36,19.20
2011,07,17,15,37,19.20
2011,07,17,15,38,19.20
2011,07,17,15,39,19.20
2011,07,17,15,40,19.10
2011,07,17,15,41,19.10
2011,07,17,15,42,19.00
2011,07,17,15,43,19.00
2011,07,17,15,44,19.00
2011,07,17,15,45,19.00
2011,07,17,15,46,19.10
2011,07,17,15,47,19.00
2011,07,17,15,48,19.00
2011,07,17,15,49,19.00
2011,07,17,15,50,19.00
2011,07,17,15,51,18.90
2011,07,17,15,52,18.90
2011,07,17,15,53,18.80
2011,07,17,15,54,18.80
2011,07,17,15,55,18.80
2011,07,17,15,56,18.80
2011,07,17,15,57,18.80
2011,07,17,15,58,18.80
2011,07,17,15,59,18.80
2011,07,17,16,00,18.80
2011,07,17,16,01,18.80
2011,07,17,16,02,18.80
2011,07,17,16,03,18.80
2011,07,17,16,04,18.80
2011,07,17,16,05,18.70
2011,07,17,16,06,18.70
2011,07,17,16,07,18.70
2011,07,17,16,08,18.60
2011,07,17,16,09,18.60
2011,07,17,16,10,18.60
2011,07,17,16,11,18.60
2011,07,17,16,12,18.60
2011,07,17,16,13,18.50
2011,07,17,16,14,18.50
2011,07,17,16,15,18.50
2011,07,17,16,16,18.50
2011,07,17,16,17,18.50
2011,07,17,16,18,18.50
2011,07,17,16,19,18.50
2011,07,17,16,20,18.50
2011,07,17,16,21,18.50
2011,07,17,16,22,18.60
2011,07,17,16,23,18.60
2011,07,17,16,24,18.60
2011,07,17,16,25,18.60
2011,07,17,16,26,18.60
2011,07,17,16,27,18.60
2011,07,17,16,28,18.60
2011,07,17,16,29,18.50
2011,07,17,16,30,18.50
2011,07,17,16,31,18.40
2011,07,17,16,32,18.40
2011,07,17,16,33,18.40
2011,07,17,16,34,18.30
2011,07,17,16,35,18.30
2011,07,17,16,36,18.30
2011,07,17,16,37,18.30
2011,07,17,16,38,18.30
2011,07,17,16,39,18.30
2011,07,17,16,40,18.30
2011,07,17,16,41,18.30
2011,07,17,16,42,18.20
2011,07,17,16,43,18.20
2011,07,17,16,44,18.20
2011,07,17,16,45,18.20
2011,07,17,16,46,18.20
2011,07,17,16,47,18.20
2011,07,17,16,48,18.20
2011,07,17,16,49,18.20
2011,07,17,16,50,18.20
2011,07,17,16,51,18.20
2011,07,17,16,52,18.20
2011,07,17,16,53,18.20
2011,07,17,16,54,18.20
2011,07,17,16,55,18.20
2011,07,17,16,56,18.20
2011,07,17,16,57,18.20
2011,07,17,16,58,18.20
2011,07,17,16,59,18.20
2011,07,17,17,00,18.20
2011,07,17,17,01,18.10
2011,07,17,17,02,18.10
2011,07,17,17,03,18.10
2011,07,17,17,04,18.10
2011,07,17,17,05,18.10
2011,07,17,17,06,18.10
2011,07,17,17,07,18.10
2011,07,17,17,08,18.00
2011,07,17,17,09,18.00
2011,07,17,17,10,18.00
2011,07,17,17,11,18.00
2011,07,17,17,12,17.90
2011,07,17,17,13,17.90
2011,07,17,17,14,17.90
2011,07,17,17,15,17.90
2011,07,17,17,16,17.90
2011,07,17,17,17,17.90
2011,07,17,17,18,17.90
2011,07,17,17,19,17.90
2011,07,17,17,20,17.90
2011,07,17,17,21,17.90
2011,07,17,17,22,17.90